,,,PA_Meas_PMT16A,,PR_Meas_QMR101_102,,RH_Meas_QMH101,,SR_Meas_QMS101,,TA_Meas_QMH101,,GenWind,,GenWind,
date,time,status,PA,status,PR,status,RH,status,SR,status,TA,status,DirAvg,status,SpdAvg,
2010-06-20, 00:00:04,VALID,1004.04,VALID,0,VALID,99.473,VALID,0,VALID,25.3993,VALID,353,VALID,0,
2010-06-20, 00:01:04,VALID,1004.03,VALID,0,VALID,99.4501,VALID,0,VALID,25.3974,VALID,353,VALID,0.626953,
2010-06-20, 00:02:04,VALID,1004.02,VALID,0,VALID,99.4501,VALID,0,VALID,25.3974,VALID,355,VALID,0.324609,
2010-06-20, 00:03:04,VALID,1003.97,VALID,0,VALID,99.4272,VALID,0,VALID,25.4188,VALID,355,VALID,0.291406,
2010-06-20, 00:04:04,VALID,1004.01,VALID,0,VALID,99.4272,VALID,0,VALID,25.4169,VALID,357,VALID,0.419531,
2010-06-20, 00:05:04,VALID,1003.99,VALID,0,VALID,99.4501,VALID,0,VALID,25.3974,VALID,357,VALID,0.028125,
2010-06-20, 00:06:04,VALID,1004.01,VALID,0,VALID,99.4577,VALID,0,VALID,25.3974,VALID,357,VALID,0.123828,
2010-06-20, 00:07:04,VALID,1004.02,VALID,0,VALID,99.4577,VALID,0,VALID,25.4188,VALID,16,VALID,0.456641,
2010-06-20, 00:08:04,VALID,1004.02,VALID,0,VALID,99.4577,VALID,0,VALID,25.4188,VALID,16,VALID,0.0984375,
2010-06-20, 00:09:04,VALID,1004.03,VALID,0,VALID,99.4425,VALID,0,VALID,25.4169,VALID,16,VALID,0.100391,
2010-06-20, 00:10:04,VALID,1003.99,VALID,0,VALID,99.4425,VALID,0,VALID,25.4363,VALID,16,VALID,0,
2010-06-20, 00:11:04,VALID,1003.97,VALID,0,VALID,99.4501,VALID,0,VALID,25.4383,VALID,83,VALID,0.574609,
2010-06-20, 00:12:04,VALID,1003.94,VALID,0,VALID,99.4425,VALID,0,VALID,25.4577,VALID,57,VALID,0.492969,
2010-06-20, 00:13:04,VALID,1003.95,VALID,0,VALID,99.4577,VALID,0,VALID,25.4558,VALID,54,VALID,0.240625,
2010-06-20, 00:14:04,VALID,1003.95,VALID,0,VALID,99.4959,VALID,0,VALID,25.4363,VALID,54,VALID,0.126953,
2010-06-20, 00:15:04,VALID,1003.94,VALID,0,VALID,99.4959,VALID,0,VALID,25.4363,VALID,54,VALID,0.3875,
2010-06-20, 00:16:04,VALID,1003.97,VALID,0,VALID,99.5111,VALID,0,VALID,25.4363,VALID,55,VALID,0.0921875,
2010-06-20, 00:17:04,VALID,1003.92,VALID,0,VALID,99.5187,VALID,0,VALID,25.4363,VALID,55,VALID,0.141016,
2010-06-20, 00:18:04,VALID,1003.91,VALID,0,VALID,99.534,VALID,0,VALID,25.4169,VALID,55,VALID,0.159375,
2010-06-20, 00:19:04,VALID,1003.88,VALID,0,VALID,99.5416,VALID,0,VALID,25.4363,VALID,48,VALID,0.498047,
2010-06-20, 00:20:04,VALID,1003.89,VALID,0,VALID,99.5264,VALID,0.100563,VALID,25.4149,VALID,31,VALID,0.384766,
2010-06-20, 00:21:04,VALID,1003.85,VALID,0,VALID,99.5569,VALID,0,VALID,25.3955,VALID,31,VALID,0.503516,
2010-06-20, 00:22:04,VALID,1003.86,VALID,0,VALID,99.5493,VALID,0,VALID,25.4149,VALID,27,VALID,0.415625,
2010-06-20, 00:23:04,VALID,1003.85,VALID,0,VALID,99.5721,VALID,0,VALID,25.4169,VALID,17,VALID,0.561719,
2010-06-20, 00:24:04,VALID,1003.86,VALID,0,VALID,99.5874,VALID,0,VALID,25.3955,VALID,23,VALID,0.982422,
2010-06-20, 00:25:04,VALID,1003.84,VALID,0,VALID,99.6179,VALID,0,VALID,25.4169,VALID,7,VALID,0.84375,
2010-06-20, 00:26:04,VALID,1003.85,VALID,0,VALID,99.5874,VALID,0,VALID,25.3955,VALID,14,VALID,0.635156,
2010-06-20, 00:27:04,VALID,1003.87,VALID,0,VALID,99.6408,VALID,0,VALID,25.4169,VALID,14,VALID,0.290234,
2010-06-20, 00:28:04,VALID,1003.87,VALID,0,VALID,99.6408,VALID,0,VALID,25.3974,VALID,14,VALID,0.348437,
2010-06-20, 00:29:04,VALID,1003.88,VALID,0,VALID,99.6637,VALID,0,VALID,25.3779,VALID,43,VALID,0.15,
2010-06-20, 00:30:04,VALID,1003.89,VALID,0,VALID,99.679,VALID,0,VALID,25.3565,VALID,53,VALID,0.268359,
2010-06-20, 00:31:04,VALID,1003.87,VALID,0,VALID,99.6942,VALID,0,VALID,25.3798,VALID,34,VALID,0.504687,
2010-06-20, 00:32:04,VALID,1003.84,VALID,0,VALID,99.7095,VALID,0,VALID,25.3584,VALID,77,VALID,0.615234,
2010-06-20, 00:33:04,VALID,1003.84,VALID,0,VALID,99.7247,VALID,0,VALID,25.339,VALID,75,VALID,0.298047,
2010-06-20, 00:34:04,VALID,1003.8,VALID,0,VALID,99.7095,VALID,0,VALID,25.339,VALID,75,VALID,0.348828,
2010-06-20, 00:35:04,VALID,1003.79,VALID,0,VALID,99.7171,VALID,0,VALID,25.339,VALID,45,VALID,0.786328,
2010-06-20, 00:36:04,VALID,1003.81,VALID,0,VALID,99.7324,VALID,0,VALID,25.2981,VALID,54,VALID,0.26875,
2010-06-20, 00:37:04,VALID,1003.73,VALID,0,VALID,99.7552,VALID,0,VALID,25.3409,VALID,56,VALID,0.340625,
2010-06-20, 00:38:04,VALID,1003.73,VALID,0,VALID,99.7476,VALID,0,VALID,25.3,VALID,76,VALID,0.422656,
2010-06-20, 00:39:04,VALID,1003.72,VALID,0,VALID,99.7629,VALID,0,VALID,25.3195,VALID,76,VALID,0.271875,
2010-06-20, 00:40:04,VALID,1003.69,VALID,0,VALID,99.7705,VALID,0,VALID,25.3,VALID,78,VALID,0.483594,
2010-06-20, 00:41:04,VALID,1003.67,VALID,0,VALID,99.7781,VALID,0,VALID,25.2806,VALID,75,VALID,0.547656,
2010-06-20, 00:42:04,VALID,1003.65,VALID,0,VALID,99.7705,VALID,0,VALID,25.3,VALID,42,VALID,0.360156,
2010-06-20, 00:43:04,VALID,1003.63,VALID,0,VALID,99.7705,VALID,0,VALID,25.2611,VALID,47,VALID,0.423047,
2010-06-20, 00:44:04,VALID,1003.65,VALID,0,VALID,99.7934,VALID,0,VALID,25.263,VALID,66,VALID,0.300781,
2010-06-20, 00:45:04,VALID,1003.64,VALID,0,VALID,99.7781,VALID,0,VALID,25.2806,VALID,64,VALID,0.858203,
2010-06-20, 00:46:04,VALID,1003.69,VALID,0,VALID,99.7934,VALID,0,VALID,25.2416,VALID,57,VALID,0.492578,
2010-06-20, 00:47:04,VALID,1003.66,VALID,0,VALID,99.8163,VALID,0,VALID,25.2825,VALID,85,VALID,0.260547,
2010-06-20, 00:48:04,VALID,1003.65,VALID,0,VALID,99.8086,VALID,0,VALID,25.2611,VALID,85,VALID,0.0851562,
2010-06-20, 00:49:04,VALID,1003.63,VALID,0,VALID,99.801,VALID,0,VALID,25.2825,VALID,85,VALID,0.221094,
2010-06-20, 00:50:04,VALID,1003.64,VALID,0,VALID,99.8163,VALID,0,VALID,25.2435,VALID,82,VALID,0.357031,
2010-06-20, 00:51:04,VALID,1003.68,VALID,0,VALID,99.8163,VALID,0,VALID,25.263,VALID,60,VALID,0.465625,
2010-06-20, 00:52:04,VALID,1003.67,VALID,0,VALID,99.801,VALID,0,VALID,25.2202,VALID,84,VALID,0.55625,
2010-06-20, 00:53:04,VALID,1003.65,VALID,0,VALID,99.801,VALID,0,VALID,25.2202,VALID,79,VALID,0.384766,
2010-06-20, 00:54:04,VALID,1003.63,VALID,0,VALID,99.801,VALID,0,VALID,25.2416,VALID,72,VALID,0.367188,
2010-06-20, 00:55:04,VALID,1003.59,VALID,0,VALID,99.801,VALID,0,VALID,25.2221,VALID,71,VALID,0.580469,
2010-06-20, 00:56:04,VALID,1003.56,VALID,0,VALID,99.7858,VALID,0,VALID,25.2221,VALID,70,VALID,0.0578125,
2010-06-20, 00:57:04,VALID,1003.53,VALID,0,VALID,99.801,VALID,0,VALID,25.2027,VALID,69,VALID,0.219141,
2010-06-20, 00:58:04,VALID,1003.55,VALID,0,VALID,99.801,VALID,0,VALID,25.2027,VALID,69,VALID,0.00195313,
2010-06-20, 00:59:04,VALID,1003.55,VALID,0,VALID,99.8163,VALID,0,VALID,25.2027,VALID,52,VALID,0.248828,
2010-06-20, 01:00:04,VALID,1003.54,VALID,0,VALID,99.8086,VALID,0,VALID,25.2221,VALID,21,VALID,0.682422,
2010-06-20, 01:01:04,VALID,1003.54,VALID,0,VALID,99.7781,VALID,0,VALID,25.2221,VALID,45,VALID,0.700781,
2010-06-20, 01:02:04,VALID,1003.54,VALID,0,VALID,99.8086,VALID,0,VALID,25.263,VALID,35,VALID,0.484375,
2010-06-20, 01:03:04,VALID,1003.52,VALID,0,VALID,99.7858,VALID,0,VALID,25.2202,VALID,34,VALID,0.29375,
2010-06-20, 01:04:04,VALID,1003.5,VALID,0,VALID,99.801,VALID,0,VALID,25.2221,VALID,34,VALID,0.0304688,
2010-06-20, 01:05:04,VALID,1003.49,VALID,0,VALID,99.7934,VALID,0,VALID,25.2416,VALID,58,VALID,0.258984,
2010-06-20, 01:06:04,VALID,1003.5,VALID,0,VALID,99.7629,VALID,0,VALID,25.2416,VALID,58,VALID,0.0164062,
2010-06-20, 01:07:04,VALID,1003.48,VALID,0,VALID,99.7858,VALID,0,VALID,25.2611,VALID,57,VALID,0.391016,
2010-06-20, 01:08:04,VALID,1003.51,VALID,0,VALID,99.7934,VALID,0,VALID,25.2806,VALID,57,VALID,0.252734,
2010-06-20, 01:09:04,VALID,1003.52,VALID,0,VALID,99.801,VALID,0,VALID,25.3,VALID,57,VALID,0.283594,
2010-06-20, 01:10:04,VALID,1003.43,VALID,0,VALID,99.7934,VALID,0,VALID,25.2806,VALID,57,VALID,0.128516,
2010-06-20, 01:11:04,VALID,1003.36,VALID,0,VALID,99.8086,VALID,0,VALID,25.3039,VALID,57,VALID,0.0910156,
2010-06-20, 01:12:04,VALID,1003.33,VALID,0,VALID,99.801,VALID,0,VALID,25.2806,VALID,57,VALID,0,
2010-06-20, 01:13:04,VALID,1003.36,VALID,0,VALID,99.801,VALID,0,VALID,25.2611,VALID,57,VALID,0,
2010-06-20, 01:14:04,VALID,1003.39,VALID,0,VALID,99.8086,VALID,0,VALID,25.2806,VALID,57,VALID,0.335156,
2010-06-20, 01:15:04,VALID,1003.39,VALID,0,VALID,99.8086,VALID,0,VALID,25.2611,VALID,51,VALID,0.617969,
2010-06-20, 01:16:04,VALID,1003.46,VALID,0,VALID,99.801,VALID,0.100563,VALID,25.2397,VALID,47,VALID,0.550391,
2010-06-20, 01:17:04,VALID,1003.5,VALID,0,VALID,99.801,VALID,0.100563,VALID,25.2007,VALID,46,VALID,0.626562,
2010-06-20, 01:18:04,VALID,1003.51,VALID,0,VALID,99.801,VALID,0,VALID,25.1813,VALID,44,VALID,0.370313,
2010-06-20, 01:19:04,VALID,1003.56,VALID,0,VALID,99.7934,VALID,0.100563,VALID,25.1618,VALID,43,VALID,0.510938,
2010-06-20, 01:20:04,VALID,1003.57,VALID,0,VALID,99.7781,VALID,0.100563,VALID,25.1423,VALID,43,VALID,0.0878906,
2010-06-20, 01:21:04,VALID,1003.56,VALID,0,VALID,99.7781,VALID,0,VALID,25.1618,VALID,43,VALID,0.171484,
2010-06-20, 01:22:04,VALID,1003.54,VALID,0,VALID,99.7629,VALID,0.100563,VALID,25.1618,VALID,43,VALID,0,
2010-06-20, 01:23:04,VALID,1003.52,VALID,0,VALID,99.7476,VALID,0.100563,VALID,25.1618,VALID,43,VALID,0,
2010-06-20, 01:24:04,VALID,1003.52,VALID,0,VALID,99.7476,VALID,0,VALID,25.1599,VALID,43,VALID,0.128516,
2010-06-20, 01:25:04,VALID,1003.53,VALID,0,VALID,99.7095,VALID,0,VALID,25.1813,VALID,43,VALID,0.333594,
2010-06-20, 01:26:04,VALID,1003.52,VALID,0,VALID,99.7095,VALID,0.100563,VALID,25.1813,VALID,43,VALID,0.0964844,
2010-06-20, 01:27:04,VALID,1003.52,VALID,0,VALID,99.7095,VALID,0.100563,VALID,25.1988,VALID,43,VALID,0,
2010-06-20, 01:28:04,VALID,1003.53,VALID,0,VALID,99.7018,VALID,0.100563,VALID,25.2397,VALID,43,VALID,0,
2010-06-20, 01:29:04,VALID,1003.54,VALID,0,VALID,99.679,VALID,0.100563,VALID,25.2592,VALID,37,VALID,0,
2010-06-20, 01:30:04,VALID,1003.52,VALID,0,VALID,99.6713,VALID,0.100563,VALID,25.2572,VALID,37,VALID,0,
2010-06-20, 01:31:04,VALID,1003.51,VALID,0,VALID,99.679,VALID,0,VALID,25.2611,VALID,37,VALID,0,
2010-06-20, 01:32:04,VALID,1003.51,VALID,0,VALID,99.6637,VALID,0,VALID,25.3,VALID,37,VALID,0,
2010-06-20, 01:33:04,VALID,1003.51,VALID,0,VALID,99.6637,VALID,0,VALID,25.2806,VALID,37,VALID,0,
2010-06-20, 01:34:04,VALID,1003.49,VALID,0,VALID,99.6713,VALID,0,VALID,25.3,VALID,37,VALID,0,
2010-06-20, 01:35:04,VALID,1003.48,VALID,0,VALID,99.6484,VALID,0,VALID,25.3195,VALID,37,VALID,0,
2010-06-20, 01:36:04,VALID,1003.49,VALID,0,VALID,99.6561,VALID,0,VALID,25.3195,VALID,37,VALID,0,
2010-06-20, 01:37:04,VALID,1003.49,VALID,0.5,VALID,99.6332,VALID,0,VALID,25.3195,VALID,38,VALID,0,
2010-06-20, 01:38:04,VALID,1003.53,VALID,0,VALID,99.6332,VALID,0,VALID,25.339,VALID,86,VALID,0.877734,
2010-06-20, 01:39:04,VALID,1003.56,VALID,0.5,VALID,99.6255,VALID,0,VALID,25.3604,VALID,104,VALID,0.829297,
2010-06-20, 01:40:04,VALID,1003.58,VALID,0.5,VALID,99.595,VALID,0,VALID,25.3584,VALID,101,VALID,0.946875,
2010-06-20, 01:41:04,VALID,1003.63,VALID,1,VALID,99.5569,VALID,0,VALID,25.3565,VALID,103,VALID,1.64336,
2010-06-20, 01:42:04,VALID,1003.63,VALID,1,VALID,99.534,VALID,0,VALID,25.3974,VALID,115,VALID,2.00273,
2010-06-20, 01:43:04,VALID,1003.64,VALID,1,VALID,99.5111,VALID,0,VALID,25.4188,VALID,100,VALID,1.52031,
2010-06-20, 01:44:04,VALID,1003.73,VALID,0.5,VALID,99.4577,VALID,0,VALID,25.4558,VALID,98,VALID,1.56211,
2010-06-20, 01:45:04,VALID,1003.76,VALID,1.5,VALID,99.4425,VALID,0,VALID,25.4753,VALID,95,VALID,1.92813,
2010-06-20, 01:46:04,VALID,1003.67,VALID,2,VALID,99.4272,VALID,0,VALID,25.4558,VALID,75,VALID,1.53125,
2010-06-20, 01:47:04,VALID,1003.63,VALID,1,VALID,99.4348,VALID,0,VALID,25.4383,VALID,103,VALID,2.05703,
2010-06-20, 01:48:04,VALID,1003.7,VALID,1,VALID,99.4272,VALID,0,VALID,25.3974,VALID,115,VALID,1.175,
2010-06-20, 01:49:04,VALID,1003.81,VALID,0.5,VALID,99.4425,VALID,0,VALID,25.339,VALID,135,VALID,2.26367,
2010-06-20, 01:50:04,VALID,1003.94,VALID,1.5,VALID,99.4043,VALID,0,VALID,25.339,VALID,138,VALID,2.10977,
2010-06-20, 01:51:04,VALID,1003.91,VALID,1,VALID,99.4119,VALID,0,VALID,25.2416,VALID,147,VALID,2.22617,
2010-06-20, 01:52:04,VALID,1003.86,VALID,1,VALID,99.679,VALID,0,VALID,24.8892,VALID,150,VALID,1.98984,
2010-06-20, 01:53:04,VALID,1003.77,VALID,1.5,VALID,99.862,VALID,0,VALID,24.5601,VALID,85,VALID,1.98281,
2010-06-20, 01:54:04,VALID,1003.45,VALID,1.5,VALID,99.9612,VALID,0,VALID,24.2291,VALID,18,VALID,1.7832,
2010-06-20, 01:55:04,VALID,1003.58,VALID,0.5,VALID,99.8926,VALID,0,VALID,24.0539,VALID,82,VALID,1.9168,
2010-06-20, 01:56:04,VALID,1003.56,VALID,0.5,VALID,99.8315,VALID,0,VALID,23.9761,VALID,109,VALID,2.09844,
2010-06-20, 01:57:04,VALID,1003.51,VALID,0,VALID,99.7858,VALID,0,VALID,23.9779,VALID,29,VALID,1.18633,
2010-06-20, 01:58:04,VALID,1003.54,VALID,0,VALID,99.7705,VALID,0,VALID,23.9177,VALID,108,VALID,0.607422,
2010-06-20, 01:59:04,VALID,1003.49,VALID,0.5,VALID,99.74,VALID,0,VALID,23.8787,VALID,82,VALID,0.437109,
2010-06-20, 02:00:04,VALID,1003.46,VALID,0,VALID,99.7171,VALID,0,VALID,23.8575,VALID,92,VALID,0.601172,
2010-06-20, 02:01:04,VALID,1003.41,VALID,0,VALID,99.7018,VALID,0,VALID,23.8398,VALID,66,VALID,0.589844,
2010-06-20, 02:02:04,VALID,1003.41,VALID,0,VALID,99.6637,VALID,0,VALID,23.8593,VALID,79,VALID,1.75547,
2010-06-20, 02:03:04,VALID,1003.45,VALID,0,VALID,99.6408,VALID,0,VALID,23.8593,VALID,93,VALID,1.92305,
2010-06-20, 02:04:04,VALID,1003.52,VALID,0,VALID,99.6103,VALID,0,VALID,23.8593,VALID,113,VALID,2.12891,
2010-06-20, 02:05:04,VALID,1003.54,VALID,0,VALID,99.5721,VALID,0,VALID,23.8787,VALID,106,VALID,0.978906,
2010-06-20, 02:06:04,VALID,1003.56,VALID,0.5,VALID,99.5645,VALID,0,VALID,23.9195,VALID,106,VALID,1.50156,
2010-06-20, 02:07:04,VALID,1003.38,VALID,0.5,VALID,99.5645,VALID,0,VALID,23.8982,VALID,93,VALID,1.98555,
2010-06-20, 02:08:04,VALID,1003.27,VALID,1,VALID,99.5264,VALID,0,VALID,23.8787,VALID,5,VALID,1.79844,
2010-06-20, 02:09:04,VALID,1003.24,VALID,0,VALID,99.4959,VALID,0,VALID,23.9177,VALID,10,VALID,1.55273,
2010-06-20, 02:10:04,VALID,1003.2,VALID,0.5,VALID,99.4653,VALID,0,VALID,23.9353,VALID,62,VALID,0.865234,
2010-06-20, 02:11:04,VALID,1003.21,VALID,0,VALID,99.4272,VALID,0,VALID,23.9761,VALID,51,VALID,0.267188,
2010-06-20, 02:12:04,VALID,1003.17,VALID,0,VALID,99.4119,VALID,0,VALID,23.9937,VALID,86,VALID,0.257422,
2010-06-20, 02:13:04,VALID,1003.21,VALID,0,VALID,99.3967,VALID,0,VALID,24.0345,VALID,20,VALID,1.16602,
2010-06-20, 02:14:04,VALID,1003.24,VALID,0,VALID,99.3662,VALID,0,VALID,24.0345,VALID,7,VALID,0.653906,
2010-06-20, 02:15:04,VALID,1003.28,VALID,0,VALID,99.3585,VALID,0,VALID,24.0539,VALID,61,VALID,0.636719,
2010-06-20, 02:16:04,VALID,1003.26,VALID,0,VALID,99.3433,VALID,0,VALID,24.0734,VALID,85,VALID,0.416016,
2010-06-20, 02:17:04,VALID,1003.32,VALID,0,VALID,99.328,VALID,0,VALID,24.0734,VALID,79,VALID,0.683203,
2010-06-20, 02:18:04,VALID,1003.32,VALID,0,VALID,99.3204,VALID,0,VALID,24.0539,VALID,53,VALID,0.494141,
2010-06-20, 02:19:04,VALID,1003.33,VALID,0,VALID,99.328,VALID,0,VALID,24.0539,VALID,50,VALID,0.283594,
2010-06-20, 02:20:04,VALID,1003.33,VALID,0,VALID,99.3204,VALID,0,VALID,24.0539,VALID,85,VALID,0.6625,
2010-06-20, 02:21:04,VALID,1003.36,VALID,0,VALID,99.2899,VALID,0,VALID,24.0521,VALID,104,VALID,0.638672,
2010-06-20, 02:22:04,VALID,1003.32,VALID,0,VALID,99.2822,VALID,0,VALID,24.0539,VALID,106,VALID,0.489062,
2010-06-20, 02:23:04,VALID,1003.28,VALID,0,VALID,99.2594,VALID,0,VALID,24.0734,VALID,106,VALID,0.0675781,
2010-06-20, 02:24:04,VALID,1003.25,VALID,0,VALID,99.2365,VALID,0,VALID,24.0734,VALID,106,VALID,0,
2010-06-20, 02:25:04,VALID,1003.26,VALID,0,VALID,99.2441,VALID,0,VALID,24.0929,VALID,109,VALID,0.469531,
2010-06-20, 02:26:04,VALID,1003.22,VALID,0,VALID,99.2594,VALID,0,VALID,24.0716,VALID,116,VALID,1.10781,
2010-06-20, 02:27:04,VALID,1003.22,VALID,0,VALID,99.2288,VALID,0,VALID,24.091,VALID,83,VALID,0.361328,
2010-06-20, 02:28:04,VALID,1003.27,VALID,0,VALID,99.2441,VALID,0,VALID,24.1123,VALID,83,VALID,0,
2010-06-20, 02:29:04,VALID,1003.27,VALID,0,VALID,99.206,VALID,0,VALID,24.091,VALID,52,VALID,0.389453,
2010-06-20, 02:30:04,VALID,1003.29,VALID,0,VALID,99.206,VALID,0,VALID,24.091,VALID,59,VALID,0.143359,
2010-06-20, 02:31:04,VALID,1003.27,VALID,0,VALID,99.1907,VALID,0,VALID,24.1123,VALID,59,VALID,0,
2010-06-20, 02:32:04,VALID,1003.24,VALID,0,VALID,99.1831,VALID,0,VALID,24.1123,VALID,59,VALID,0,
2010-06-20, 02:33:04,VALID,1003.22,VALID,0,VALID,99.1831,VALID,0,VALID,24.1123,VALID,59,VALID,0.403125,
2010-06-20, 02:34:04,VALID,1003.18,VALID,0,VALID,99.1526,VALID,0,VALID,24.1318,VALID,64,VALID,0.0722656,
2010-06-20, 02:35:04,VALID,1003.2,VALID,0,VALID,99.1526,VALID,0,VALID,24.1318,VALID,65,VALID,0.0109375,
2010-06-20, 02:36:04,VALID,1003.19,VALID,0,VALID,99.1602,VALID,0,VALID,24.1513,VALID,99,VALID,0.466406,
2010-06-20, 02:37:04,VALID,1003.17,VALID,0,VALID,99.1373,VALID,0,VALID,24.1513,VALID,99,VALID,0.0515625,
2010-06-20, 02:38:04,VALID,1003.18,VALID,0,VALID,99.1297,VALID,0,VALID,24.1513,VALID,99,VALID,0.00078125,
2010-06-20, 02:39:04,VALID,1003.14,VALID,0,VALID,99.1297,VALID,0,VALID,24.1494,VALID,99,VALID,0.160156,
2010-06-20, 02:40:04,VALID,1003.12,VALID,0,VALID,99.1373,VALID,0,VALID,24.1707,VALID,99,VALID,0.173438,
2010-06-20, 02:41:04,VALID,1003.1,VALID,0,VALID,99.0992,VALID,0,VALID,24.1707,VALID,99,VALID,0.360938,
2010-06-20, 02:42:04,VALID,1003.06,VALID,0,VALID,99.1068,VALID,0,VALID,24.1494,VALID,97,VALID,0.312109,
2010-06-20, 02:43:04,VALID,1003.05,VALID,0,VALID,99.0915,VALID,0,VALID,24.1707,VALID,97,VALID,0.427734,
2010-06-20, 02:44:04,VALID,1003.04,VALID,0,VALID,99.1068,VALID,0,VALID,24.1707,VALID,9,VALID,0.803906,
2010-06-20, 02:45:04,VALID,1003.01,VALID,0,VALID,99.0686,VALID,0,VALID,24.1513,VALID,9,VALID,0.726563,
2010-06-20, 02:46:04,VALID,1002.92,VALID,0,VALID,99.0839,VALID,0,VALID,24.1513,VALID,2,VALID,0.930469,
2010-06-20, 02:47:04,VALID,1002.85,VALID,0,VALID,99.0534,VALID,0,VALID,24.13,VALID,345,VALID,0.427734,
2010-06-20, 02:48:04,VALID,1002.81,VALID,0,VALID,99.0686,VALID,0,VALID,24.1707,VALID,345,VALID,0.544141,
2010-06-20, 02:49:04,VALID,1002.77,VALID,0,VALID,99.0686,VALID,0,VALID,24.1707,VALID,345,VALID,0.0421875,
2010-06-20, 02:50:04,VALID,1002.76,VALID,0,VALID,99.061,VALID,0,VALID,24.1318,VALID,345,VALID,0,
2010-06-20, 02:51:04,VALID,1002.76,VALID,0,VALID,99.0534,VALID,0,VALID,24.1318,VALID,345,VALID,0.034375,
2010-06-20, 02:52:04,VALID,1002.75,VALID,0,VALID,99.0458,VALID,0,VALID,24.1513,VALID,345,VALID,0.200781,
2010-06-20, 02:53:04,VALID,1002.76,VALID,0,VALID,99.0305,VALID,0,VALID,24.1513,VALID,345,VALID,0.260938,
2010-06-20, 02:54:04,VALID,1002.77,VALID,0,VALID,99.0305,VALID,0,VALID,24.1513,VALID,345,VALID,0.684766,
2010-06-20, 02:55:04,VALID,1002.79,VALID,0,VALID,99.0305,VALID,0,VALID,24.1513,VALID,345,VALID,0.351172,
2010-06-20, 02:56:04,VALID,1002.79,VALID,0,VALID,99.0229,VALID,0,VALID,24.1318,VALID,345,VALID,0.271484,
2010-06-20, 02:57:04,VALID,1002.8,VALID,0,VALID,99.0229,VALID,0,VALID,24.1318,VALID,353,VALID,0.569531,
2010-06-20, 02:58:04,VALID,1002.81,VALID,0,VALID,99.0076,VALID,0,VALID,24.1123,VALID,358,VALID,0.284375,
2010-06-20, 02:59:04,VALID,1002.83,VALID,0,VALID,99.0152,VALID,0,VALID,24.1123,VALID,358,VALID,0.155469,
2010-06-20, 03:00:04,VALID,1002.82,VALID,0,VALID,99.0152,VALID,0,VALID,24.1336,VALID,358,VALID,0.340625,
2010-06-20, 03:01:04,VALID,1002.87,VALID,0,VALID,98.9924,VALID,0,VALID,24.1123,VALID,358,VALID,0.442969,
2010-06-20, 03:02:04,VALID,1002.93,VALID,0,VALID,99.0152,VALID,0,VALID,24.0929,VALID,358,VALID,0.249609,
2010-06-20, 03:03:04,VALID,1002.93,VALID,0,VALID,98.9924,VALID,0,VALID,24.0929,VALID,358,VALID,0,
2010-06-20, 03:04:04,VALID,1003.01,VALID,0,VALID,98.9924,VALID,0,VALID,24.1336,VALID,86,VALID,0.324219,
2010-06-20, 03:05:04,VALID,1003.03,VALID,0,VALID,98.9771,VALID,0,VALID,24.1318,VALID,72,VALID,0.409766,
2010-06-20, 03:06:04,VALID,1003.06,VALID,0,VALID,98.9695,VALID,0,VALID,24.1513,VALID,86,VALID,0.364844,
2010-06-20, 03:07:04,VALID,1003.1,VALID,0,VALID,98.9618,VALID,0,VALID,24.1513,VALID,57,VALID,0.287109,
2010-06-20, 03:08:04,VALID,1003.1,VALID,0,VALID,98.9313,VALID,0,VALID,24.1707,VALID,57,VALID,0.205078,
2010-06-20, 03:09:04,VALID,1003.1,VALID,0,VALID,98.9389,VALID,0,VALID,24.1707,VALID,57,VALID,0.3,
2010-06-20, 03:10:04,VALID,1003.07,VALID,0,VALID,98.9695,VALID,0,VALID,24.1513,VALID,57,VALID,0.176563,
2010-06-20, 03:11:04,VALID,1003.07,VALID,0,VALID,98.9542,VALID,0,VALID,24.1494,VALID,57,VALID,0.0078125,
2010-06-20, 03:12:04,VALID,1003.1,VALID,0,VALID,98.9466,VALID,0,VALID,24.1707,VALID,57,VALID,0.0296875,
2010-06-20, 03:13:04,VALID,1003.09,VALID,0,VALID,98.9542,VALID,0,VALID,24.1707,VALID,59,VALID,0.0960938,
2010-06-20, 03:14:04,VALID,1003.09,VALID,0,VALID,98.9313,VALID,0,VALID,24.1494,VALID,78,VALID,0.309766,
2010-06-20, 03:15:04,VALID,1003.1,VALID,0,VALID,98.9161,VALID,0,VALID,24.1707,VALID,70,VALID,0.386328,
2010-06-20, 03:16:04,VALID,1003.12,VALID,0,VALID,98.9237,VALID,0,VALID,24.1494,VALID,32,VALID,0.567578,
2010-06-20, 03:17:04,VALID,1003.13,VALID,0,VALID,98.9466,VALID,0,VALID,24.13,VALID,32,VALID,0.0898438,
2010-06-20, 03:18:04,VALID,1003.15,VALID,0,VALID,98.9313,VALID,0,VALID,24.1513,VALID,32,VALID,0.537109,
2010-06-20, 03:19:04,VALID,1003.18,VALID,0,VALID,98.9237,VALID,0,VALID,24.1494,VALID,32,VALID,0.45,
2010-06-20, 03:20:04,VALID,1003.21,VALID,0,VALID,98.9008,VALID,0,VALID,24.1902,VALID,32,VALID,0.338672,
2010-06-20, 03:21:04,VALID,1003.22,VALID,0,VALID,98.9084,VALID,0,VALID,24.1884,VALID,32,VALID,0.417578,
2010-06-20, 03:22:04,VALID,1003.21,VALID,0,VALID,98.8856,VALID,0,VALID,24.2078,VALID,16,VALID,0.942969,
2010-06-20, 03:23:04,VALID,1003.21,VALID,0,VALID,98.8703,VALID,0,VALID,24.2875,VALID,15,VALID,0.361328,
2010-06-20, 03:24:04,VALID,1003.23,VALID,0,VALID,98.8398,VALID,0,VALID,24.2875,VALID,15,VALID,0.362109,
2010-06-20, 03:25:04,VALID,1003.22,VALID,0,VALID,98.8321,VALID,0,VALID,24.2857,VALID,15,VALID,0.277734,
2010-06-20, 03:26:04,VALID,1003.21,VALID,0,VALID,98.8321,VALID,0,VALID,24.3246,VALID,15,VALID,0.111719,
2010-06-20, 03:27:04,VALID,1003.22,VALID,0,VALID,98.8321,VALID,0,VALID,24.3246,VALID,15,VALID,0,
2010-06-20, 03:28:04,VALID,1003.23,VALID,0,VALID,98.8321,VALID,0,VALID,24.3246,VALID,15,VALID,0,
2010-06-20, 03:29:04,VALID,1003.23,VALID,0,VALID,98.8398,VALID,0,VALID,24.3654,VALID,15,VALID,0.146094,
2010-06-20, 03:30:04,VALID,1003.19,VALID,0,VALID,98.8398,VALID,0,VALID,24.3459,VALID,22,VALID,0.319531,
2010-06-20, 03:31:04,VALID,1003.16,VALID,0,VALID,98.8169,VALID,0,VALID,24.3441,VALID,22,VALID,0,
2010-06-20, 03:32:04,VALID,1003.13,VALID,0,VALID,98.8398,VALID,0,VALID,24.3441,VALID,72,VALID,0.379297,
2010-06-20, 03:33:04,VALID,1003.05,VALID,0,VALID,98.8169,VALID,0,VALID,24.3849,VALID,72,VALID,0.217969,
2010-06-20, 03:34:04,VALID,1003.03,VALID,0,VALID,98.8169,VALID,0,VALID,24.3849,VALID,107,VALID,0.889844,
2010-06-20, 03:35:04,VALID,1003.02,VALID,0,VALID,98.7864,VALID,0,VALID,24.4025,VALID,72,VALID,0.292969,
2010-06-20, 03:36:04,VALID,1003,VALID,0,VALID,98.8093,VALID,0,VALID,24.4238,VALID,72,VALID,0,
2010-06-20, 03:37:04,VALID,1002.98,VALID,0,VALID,98.7711,VALID,0,VALID,24.4025,VALID,72,VALID,0.308984,
2010-06-20, 03:38:04,VALID,1002.97,VALID,0,VALID,98.794,VALID,0,VALID,24.4025,VALID,72,VALID,0.223828,
2010-06-20, 03:39:04,VALID,1002.97,VALID,0,VALID,98.8016,VALID,0,VALID,24.4043,VALID,72,VALID,0.172656,
2010-06-20, 03:40:04,VALID,1002.98,VALID,0,VALID,98.8016,VALID,0,VALID,24.383,VALID,54,VALID,0.609766,
2010-06-20, 03:41:04,VALID,1002.97,VALID,0,VALID,98.8016,VALID,0,VALID,24.4043,VALID,46,VALID,0.250781,
2010-06-20, 03:42:04,VALID,1003.02,VALID,0,VALID,98.794,VALID,0,VALID,24.4043,VALID,46,VALID,0.430078,
2010-06-20, 03:43:04,VALID,1003.06,VALID,0,VALID,98.8093,VALID,0,VALID,24.3849,VALID,46,VALID,0.0804688,
2010-06-20, 03:44:04,VALID,1003.09,VALID,0,VALID,98.794,VALID,0,VALID,24.3636,VALID,46,VALID,0,
2010-06-20, 03:45:04,VALID,1003.12,VALID,0,VALID,98.8016,VALID,0,VALID,24.3636,VALID,44,VALID,0,
2010-06-20, 03:46:04,VALID,1003.19,VALID,0,VALID,98.7711,VALID,0,VALID,24.3636,VALID,44,VALID,0,
2010-06-20, 03:47:04,VALID,1003.22,VALID,0,VALID,98.794,VALID,0,VALID,24.3441,VALID,44,VALID,0,